"2010-04-07 00:00:00",3340,11.65,336.6,4.863,0.89,7.154,101.0519,1.983,3.271,27.34,0,109.8,13.5,2.74,298.6
"2010-04-07 00:00:30",3341,10.43,332.6,6.054,0.655,7.202,101.0519,1.983,3.282,27.73,0,109.8,13.5,2.74,294.6
"2010-04-07 00:01:00",3342,9.72,342.8,4.334,0.684,7.165,101.0519,1.983,3.293,26.9,0,109.8,13.5,2.74,304.8
"2010-04-07 00:01:30",3343,8.75,340.5,4.462,0.977,6.932,101.0519,1.983,3.297,26.25,0,109.8,13.5,2.74,302.5
"2010-04-07 00:02:00",3344,8.98,352.4,7.44,0.892,6.861,101.0519,1.983,3.289,26.05,0,109.7,13.5,2.74,314.4
"2010-04-07 00:02:30",3345,10.09,349.1,5.646,0.919,5.857,101.0519,1.983,3.291,26.42,0,109.8,13.5,2.74,311.1
"2010-04-07 00:03:00",3346,10.69,339.5,6.699,1.345,5.222,101.0519,1.983,3.232,26.65,0,109.8,13.5,2.74,301.5
"2010-04-07 00:03:30",3347,11.44,346.1,5.466,0.912,5.825,101.0519,1.983,3.23,26.75,0,109.8,13.5,2.74,308.1
"2010-04-07 00:04:00",3348,10.96,343.2,4.657,0.962,6.307,101.0519,1.983,3.302,26.73,0,109.8,13.5,2.74,305.2
"2010-04-07 00:04:30",3349,9.98,342,4.428,0.639,6.652,101.0519,1.983,3.309,26.61,0,109.8,13.5,2.74,304.0
"2010-04-07 00:05:00",3350,10.43,339.4,4.378,0.745,6.366,101.0519,1.983,3.306,26.47,0,109.8,13.5,2.74,301.4
"2010-04-07 00:05:30",3351,9.36,337.8,5.503,0.848,6.617,101.0519,1.983,3.306,26.34,0,109.8,13.5,2.74,299.8
"2010-04-07 00:06:00",3352,8.57,344.7,4.183,0.903,6.605,101.0519,1.983,3.3,25.99,0,109.8,13.5,2.74,306.7
"2010-04-07 00:06:30",3353,9.07,339.3,4.738,0.672,6.262,101.0519,1.983,3.304,25.33,0,109.8,13.5,2.74,301.3
"2010-04-07 00:07:00",3354,9.92,331.9,4.445,1.018,6.283,101.0519,1.983,3.308,25.72,0,109.8,13.5,2.74,293.9
"2010-04-07 00:07:30",3355,8.09,341.2,6.454,1.116,6.656,101.0514,1.982,3.291,25.93,0,109.8,13.5,2.74,303.2
"2010-04-07 00:08:00",3356,10.84,334.8,5.022,1.743,6.601,101.0516,1.983,3.294,25.83,0,109.7,13.5,2.74,296.8
"2010-04-07 00:08:30",3357,11.62,329.5,5.919,0.969,6.752,101.0516,1.983,3.303,24.06,0,109.8,13.49,2.74,291.5
"2010-04-07 00:09:00",3358,11.45,331.8,9.38,1.157,6.913,101.0519,1.983,3.305,23.66,0,109.8,13.5,2.74,293.8
"2010-04-07 00:09:30",3359,10.3,352.9,7.07,1.59,7.206,101.0522,1.984,3.302,24.76,0,109.8,13.5,2.74,314.9
"2010-04-07 00:10:00",3360,8.13,3.186,6.229,1.659,7.123,101.0519,1.983,3.317,25.5,0,109.8,13.5,2.74,325.2
"2010-04-07 00:10:30",3361,9.05,0.393,6.213,1.02,6.866,101.0519,1.983,3.318,25.86,0,109.8,13.5,2.74,322.4
"2010-04-07 00:11:00",3362,8.72,2.185,4.375,1.133,6.696,101.0522,1.984,3.304,25.71,0,109.8,13.5,2.74,324.2
"2010-04-07 00:11:30",3363,9.73,353.7,5.859,1.544,4.647,101.0519,1.983,3.259,25.38,0,109.8,13.5,2.74,315.7
"2010-04-07 00:12:00",3364,8.66,0.411,8.51,1.842,5.1,101.0519,1.983,3.219,25.33,0,109.8,13.5,2.74,322.4
"2010-04-07 00:12:30",3365,7.819,350.5,8.29,1.495,3.96,101.0519,1.983,3.169,25.52,0,109.8,13.5,2.74,312.5
"2010-04-07 00:13:00",3366,9.57,352.8,5.61,1.19,6.102,101.0528,1.985,3.289,26.15,0,109.8,13.51,2.74,314.8
"2010-04-07 00:13:30",3367,10.34,359.7,5.214,1.269,7.287,101.0531,1.986,3.335,26.29,0,109.7,13.51,2.75,321.7
"2010-04-07 00:14:00",3368,10.89,354,5.33,0.874,7.548,101.0519,1.983,3.34,26.2,0,109.8,13.51,2.74,316.0
"2010-04-07 00:14:30",3369,10.7,346.6,5.984,0.986,7.241,101.0525,1.985,3.356,26.14,0,109.7,13.51,2.74,308.6
"2010-04-07 00:15:00",3370,10.45,340.9,5.004,0.91,7.156,101.0533,1.987,3.345,26.55,0,109.8,13.51,2.75,302.9
"2010-04-07 00:15:30",3371,10.16,344.8,5.749,0.84,7.129,101.0536,1.988,3.364,26.82,0,109.8,13.51,2.75,306.8
"2010-04-07 00:16:00",3372,10.98,348.9,4.201,0.79,6.95,101.0548,1.991,3.352,26.79,0,109.8,13.51,2.75,310.9
"2010-04-07 00:16:30",3373,9.62,348.6,3.807,0.779,6.904,101.0565,1.995,3.364,27.05,0,109.8,13.51,2.75,310.6
"2010-04-07 00:17:00",3374,10.33,348.7,5.301,1.424,6.916,101.0568,1.996,3.361,26.97,0,109.8,13.51,2.75,310.7
"2010-04-07 00:17:30",3375,13.33,345.5,5.201,0.891,6.946,101.0587,2.001,3.362,25.71,0,109.8,13.51,2.76,307.5
"2010-04-07 00:18:00",3376,14.97,350.2,3.371,0.758,7.045,101.0661,2.019,3.353,24.36,0,109.8,13.51,2.78,312.2
"2010-04-07 00:18:30",3377,13.7,353.9,5.417,0.877,7.337,101.0681,2.025,3.37,24.1,0,109.8,13.51,2.78,315.9
"2010-04-07 00:19:00",3378,12.14,358.4,4.906,0.915,7.42,101.0698,2.029,3.38,24.54,0,109.8,13.51,2.79,320.4
"2010-04-07 00:19:30",3379,13.38,355.9,4.273,0.828,7.377,101.0814,2.059,3.376,24.53,0,109.7,13.51,2.82,317.9
"2010-04-07 00:20:00",3380,12.63,351,4.131,0.721,7.275,101.0871,2.073,3.388,24.36,0,109.7,13.51,2.83,313.0
"2010-04-07 00:20:30",3381,12.7,347.9,5.591,0.912,7.304,101.0913,2.084,3.375,24.44,0,109.8,13.51,2.84,309.9
"2010-04-07 00:21:00",3382,13.54,344.5,6.181,0.76,7.394,101.0953,2.094,3.384,24.23,0,109.7,13.51,2.85,306.5
"2010-04-07 00:21:30",3383,14.36,351.3,4.347,0.43,7.774,101.0973,2.099,3.392,23.66,0,109.7,13.51,2.86,313.3
"2010-04-07 00:22:00",3384,13.53,346.5,4.155,0.948,7.554,101.1044,2.117,3.391,23.5,0,109.7,13.51,2.88,308.5
"2010-04-07 00:22:30",3385,13.35,347.8,4.643,0.503,7.573,101.1056,2.12,3.39,23.54,0,109.7,13.5,2.88,309.8
"2010-04-07 00:23:00",3386,13.6,354.6,4.227,0.692,7.637,101.107,2.124,3.416,23.78,0,109.7,13.5,2.88,316.6
"2010-04-07 00:23:30",3387,13.46,355.6,4.482,0.761,7.719,101.107,2.124,3.404,23.51,0,109.7,13.5,2.88,317.6
"2010-04-07 00:24:00",3388,12.51,352,4.687,0.729,7.709,101.1087,2.128,3.402,23.27,0,109.7,13.5,2.89,314.0
"2010-04-07 00:24:30",3389,12.74,355.1,4.544,0.77,7.534,101.1093,2.13,3.408,23.16,0,109.8,13.5,2.89,317.1
"2010-04-07 00:25:00",3390,12.58,352,4.237,0.665,7.45,101.1104,2.133,3.426,23.11,0,109.7,13.5,2.89,314.0
"2010-04-07 00:25:30",3391,12.46,350,4.232,0.838,7.324,101.1107,2.133,3.428,23.2,0,109.7,13.5,2.89,312.0
"2010-04-07 00:26:00",3392,12.42,349.8,4.878,0.574,7.472,101.1124,2.138,3.426,23.61,0,109.7,13.5,2.90,311.8
"2010-04-07 00:26:30",3393,12.39,350.4,3.931,0.712,7.252,101.1139,2.141,3.42,23.78,0,109.7,13.5,2.90,312.4
"2010-04-07 00:27:00",3394,12.65,349.8,3.625,0.702,7.315,101.113,2.139,3.423,23.42,0,109.7,13.5,2.90,311.8
"2010-04-07 00:27:30",3395,12.18,348.6,3.822,0.754,7.229,101.1139,2.141,3.41,22.9,0,109.7,13.51,2.90,310.6
"2010-04-07 00:28:00",3396,12.53,348.4,3.605,0.787,7.263,101.1142,2.142,3.418,22.77,0,109.7,13.51,2.90,310.4
"2010-04-07 00:28:30",3397,12.69,350,4.151,0.824,7.299,101.115,2.144,3.425,22.91,0,109.8,13.51,2.90,312.0
"2010-04-07 00:29:00",3398,14.26,346,5.093,0.882,7.361,101.115,2.144,3.435,22.97,0,109.7,13.52,2.90,308.0
"2010-04-07 00:29:30",3399,13.95,338.9,3.938,1.105,7.405,101.115,2.144,3.425,22.85,0,109.7,13.52,2.90,300.9
"2010-04-07 00:30:00",3400,13.78,342.3,4.023,0.61,7.682,101.1162,2.147,3.431,22.91,0,109.7,13.52,2.91,304.3
"2010-04-07 00:30:30",3401,13.67,342,3.973,0.628,7.656,101.1179,2.152,3.44,22.91,0,109.7,13.52,2.91,304.0
"2010-04-07 00:31:00",3402,12.66,343,4.563,0.565,7.739,101.1167,2.149,3.478,23.02,0,109.7,13.52,2.91,305.0
"2010-04-07 00:31:30",3403,12.4,351.4,4.382,0.601,7.692,101.119,2.154,3.459,23.19,0,109.7,13.52,2.91,313.4
"2010-04-07 00:32:00",3404,12.6,341.7,6.775,0.625,7.696,101.119,2.154,3.475,23.12,0,109.7,13.52,2.91,303.7
"2010-04-07 00:32:30",3405,13.12,340.7,5.681,0.829,7.499,101.119,2.154,3.453,22.67,0,109.7,13.52,2.91,302.7
"2010-04-07 00:33:00",3406,12.66,343,4.099,0.762,7.457,101.1196,2.156,3.458,22.64,0,109.7,13.52,2.92,305.0
"2010-04-07 00:33:30",3407,13,338.7,5.123,0.934,7.417,101.1202,2.157,3.459,22.72,0,109.7,13.52,2.92,300.7
"2010-04-07 00:34:00",3408,13.6,336.1,3.449,0.754,7.633,101.1218,2.162,3.475,22.69,0,109.7,13.52,2.92,298.1
"2010-04-07 00:34:30",3409,13.89,345,7.944,0.654,7.642,101.123,2.165,3.467,22.76,0,109.8,13.52,2.92,307.0
"2010-04-07 00:35:00",3410,13.38,353.1,4.548,0.676,7.783,101.123,2.165,3.477,22.92,0,109.7,13.52,2.92,315.1
"2010-04-07 00:35:30",3411,12.72,353.9,4.374,0.784,7.719,101.1241,2.167,3.478,23.04,0,109.7,13.52,2.93,315.9
"2010-04-07 00:36:00",3412,12.56,353.3,4.131,0.579,7.638,101.1253,2.17,3.474,22.98,0,109.7,13.52,2.93,315.3
"2010-04-07 00:36:30",3413,14.33,347.8,4.05,0.951,7.474,101.1292,2.18,3.491,23,0,109.7,13.52,2.94,309.8
"2010-04-07 00:37:00",3414,14.98,348.2,4.707,0.841,7.505,101.1289,2.18,3.487,22.94,0,109.7,13.52,2.94,310.2
"2010-04-07 00:37:30",3415,12.96,358.2,4.31,1.058,7.756,101.1275,2.176,3.478,23.05,0,109.7,13.52,2.94,320.2
"2010-04-07 00:38:00",3416,12.8,358.1,3.45,0.711,7.746,101.1238,2.167,3.474,23.18,0,109.7,13.52,2.93,320.1
"2010-04-07 00:38:30",3417,12.34,358.8,3.788,0.811,7.471,101.1221,2.162,3.478,23.21,0,109.7,13.52,2.92,320.8
"2010-04-07 00:39:00",3418,12.08,349.4,4.213,0.794,7.275,101.1207,2.159,3.496,23.16,0,109.7,13.51,2.92,311.4
"2010-04-07 00:39:30",3419,12.61,339.9,5.716,0.723,7.28,101.1204,2.158,3.498,23.21,0,109.7,13.51,2.92,301.9
"2010-04-07 00:40:00",3420,13.16,342.3,4.33,1.14,7.431,101.1202,2.157,3.479,23.31,0,109.7,13.51,2.92,304.3
"2010-04-07 00:40:30",3421,14.29,338,5.63,0.848,7.38,101.1202,2.157,3.485,23.5,0,109.8,13.51,2.92,300.0
"2010-04-07 00:41:00",3422,13.27,325.5,6.39,0.629,7.723,101.1202,2.157,3.482,23.96,0,109.7,13.51,2.92,287.5
"2010-04-07 00:41:30",3423,13.79,329.7,6.433,1.271,7.891,101.1202,2.157,3.494,23.92,0,109.7,13.51,2.92,291.7
"2010-04-07 00:42:00",3424,14.27,336.6,3.804,0.695,7.945,101.1202,2.157,3.465,23.32,0,109.7,13.51,2.92,298.6
"2010-04-07 00:42:30",3425,12.17,334.8,4.605,0.944,7.777,101.1202,2.157,3.479,23.36,0,109.7,13.51,2.92,296.8
"2010-04-07 00:43:00",3426,12.58,336,4.042,0.859,7.867,101.1202,2.157,3.479,23.72,0,109.7,13.51,2.92,298.0
"2010-04-07 00:43:30",3427,11.33,338.9,5.38,0.992,7.736,101.1202,2.157,3.481,23.78,0,109.7,13.52,2.92,300.9
"2010-04-07 00:44:00",3428,11.22,333.8,4.258,0.645,7.623,101.1187,2.154,3.445,23.98,0,109.7,13.52,2.91,295.8
"2010-04-07 00:44:30",3429,12.46,336.8,5.679,0.735,7.541,101.1179,2.152,3.443,24.2,0,109.8,13.52,2.91,298.8
"2010-04-07 00:45:00",3430,12.39,333.3,5.898,0.8,7.487,101.1151,2.144,3.449,24.04,0,109.7,13.52,2.90,295.3
"2010-04-07 00:45:30",3431,10.91,333.6,4.497,0.582,7.638,101.1086,2.128,3.463,24.35,0,109.7,13.52,2.89,295.6
"2010-04-07 00:46:00",3432,11.56,332.1,3.676,0.771,7.446,101.0992,2.104,3.457,24.53,0,109.7,13.52,2.86,294.1
"2010-04-07 00:46:30",3433,11.54,330.9,4.169,0.67,7.327,101.0916,2.084,3.445,24.23,0,109.8,13.52,2.84,292.9
"2010-04-07 00:47:00",3434,12.76,330.7,5.312,0.965,7.449,101.0879,2.075,3.456,24.07,0,109.7,13.52,2.83,292.7
"2010-04-07 00:47:30",3435,13.63,331.4,5.57,0.814,7.498,101.0865,2.071,3.433,24.03,0,109.7,13.52,2.83,293.4
"2010-04-07 00:48:00",3436,12.79,332.7,4.174,0.668,7.739,101.0862,2.071,3.435,24.15,0,109.7,13.52,2.83,294.7
"2010-04-07 00:48:30",3437,14.51,331.8,4.423,0.756,7.609,101.0862,2.071,3.413,24.17,0,109.7,13.52,2.83,293.8
"2010-04-07 00:49:00",3438,14.15,330.4,4.125,0.785,7.746,101.0862,2.071,3.442,24.2,0,109.7,13.52,2.83,292.4
"2010-04-07 00:49:30",3439,13.61,334.3,4.74,0.698,7.817,101.0862,2.071,3.416,24.23,0,109.7,13.52,2.83,296.3
"2010-04-07 00:50:00",3440,13.03,338.4,6.157,0.866,8.04,101.0862,2.071,3.42,24.29,0,109.7,13.52,2.83,300.4
"2010-04-07 00:50:30",3441,11.52,336,7.653,1.156,7.838,101.0862,2.071,3.419,24.34,0,109.7,13.52,2.83,298.0
"2010-04-07 00:51:00",3442,11,336.1,8.9,1.132,7.508,101.0862,2.071,3.427,24.13,0,109.7,13.52,2.83,298.1
"2010-04-07 00:51:30",3443,9.67,335.5,7.535,0.766,7.451,101.0862,2.071,3.405,24,0,109.7,13.52,2.83,297.5
"2010-04-07 00:52:00",3444,10.25,336.8,4.139,0.683,7.194,101.0862,2.071,3.424,24.14,0,109.7,13.52,2.83,298.8
"2010-04-07 00:52:30",3445,11.69,336,3.911,0.859,7.122,101.0834,2.064,3.392,24.33,0,109.7,13.52,2.82,298.0
"2010-04-07 00:53:00",3446,10.53,343.2,5.768,0.768,7.209,101.0752,2.043,3.401,24.28,0,109.7,13.52,2.80,305.2
"2010-04-07 00:53:30",3447,12.31,341.4,5.823,1.078,7.12,101.0661,2.02,3.391,24.34,0,109.7,13.53,2.78,303.4
"2010-04-07 00:54:00",3448,13.71,346.9,6.915,0.756,7.379,101.0642,2.014,3.382,24.35,0,109.7,13.53,2.77,308.9
"2010-04-07 00:54:30",3449,12.17,350.3,4.873,0.576,7.256,101.0582,1.999,3.38,24.5,0,109.7,13.53,2.76,312.3
"2010-04-07 00:55:00",3450,11.38,344.2,6.661,0.935,7.142,101.0543,1.989,3.38,24.8,0,109.7,13.52,2.75,306.2
"2010-04-07 00:55:30",3451,10.57,354.5,5.543,0.681,7.21,101.0523,1.984,3.369,24.86,0,109.7,13.52,2.74,316.5
"2010-04-07 00:56:00",3452,10.86,353.9,4.071,0.531,7.229,101.0523,1.984,3.376,24.69,0,109.7,13.52,2.74,315.9
"2010-04-07 00:56:30",3453,11.18,349.5,4.972,0.571,6.963,101.0523,1.984,3.363,24.11,0,109.8,13.52,2.74,311.5
"2010-04-07 00:57:00",3454,10.9,350.4,5.779,0.65,6.75,101.0523,1.984,3.341,23.8,0,109.7,13.52,2.74,312.4
"2010-04-07 00:57:30",3455,11.14,347.1,5.11,0.652,6.651,101.0523,1.984,3.363,24.05,0,109.7,13.52,2.74,309.1
"2010-04-07 00:58:00",3456,11.7,344.7,3.847,0.893,6.674,101.0523,1.984,3.343,24.52,0,109.7,13.52,2.74,306.7
"2010-04-07 00:58:30",3457,11.87,343.4,4.408,0.681,6.618,101.0523,1.984,3.343,24.77,0,109.8,13.52,2.74,305.4
"2010-04-07 00:59:00",3458,11.91,346.1,5.235,0.61,6.579,101.0523,1.984,3.34,24.95,0,109.7,13.52,2.74,308.1
"2010-04-07 00:59:30",3459,12.48,347.9,4.876,0.819,6.677,101.0523,1.984,3.345,24.83,0,109.7,13.52,2.74,309.9
"2010-04-07 01:00:00",3460,12.46,344.8,3.249,0.623,6.83,101.0523,1.984,3.353,24.82,0,109.7,13.52,2.74,306.8
"2010-04-07 01:00:30",3461,11.86,344,5.603,0.708,6.896,101.0534,1.987,3.351,24.83,0,109.7,13.52,2.75,306.0
"2010-04-07 01:01:00",3462,10.95,338.5,4.816,0.757,6.847,101.0565,1.995,3.356,25.14,0,109.7,13.53,2.75,300.5
"2010-04-07 01:01:30",3463,11.96,343.8,6.046,0.697,7.029,101.0591,2.001,3.348,25.34,0,109.7,13.53,2.76,305.8
"2010-04-07 01:02:00",3464,13.18,348,4.028,0.405,7.335,101.0625,2.01,3.358,24.86,0,109.7,13.53,2.77,310.0
"2010-04-07 01:02:30",3465,12.48,349.8,4.298,0.592,7.291,101.0627,2.011,3.371,24.51,0,109.7,13.53,2.77,311.8
"2010-04-07 01:03:00",3466,12.02,350.7,3.827,0.573,7.225,101.0644,2.015,3.375,24.64,0,109.7,13.53,2.77,312.7
"2010-04-07 01:03:30",3467,11.86,347.9,4.921,0.559,7.19,101.065,2.017,3.366,24.91,0,109.7,13.53,2.78,309.9
"2010-04-07 01:04:00",3468,11.36,348.6,5.165,0.618,7.332,101.0616,2.008,3.367,24.8,0,109.7,13.53,2.77,310.6
"2010-04-07 01:04:30",3469,11.56,347.9,4.494,0.785,7.054,101.0608,2.006,3.363,24.48,0,109.8,13.53,2.76,309.9
"2010-04-07 01:05:00",3470,12.14,347.6,5.926,1.004,7.159,101.0557,1.993,3.366,24.32,0,109.7,13.53,2.75,309.6
"2010-04-07 01:05:30",3471,12.13,349.3,6.018,0.665,7.091,101.0528,1.986,3.353,24.37,0,109.7,13.53,2.74,311.3
"2010-04-07 01:06:00",3472,12.1,339.1,3.661,1.284,7.112,101.0523,1.984,3.348,24.34,0,109.7,13.53,2.74,301.1
"2010-04-07 01:06:30",3473,12.94,345.9,5.54,0.703,7.222,101.0523,1.984,3.338,24.22,0,109.8,13.53,2.74,307.9
"2010-04-07 01:07:00",3474,12.47,346.7,4.87,0.516,7.223,101.0523,1.984,3.346,24.41,0,109.7,13.53,2.74,308.7
"2010-04-07 01:07:30",3475,12,339.8,5.781,0.758,7.087,101.0523,1.984,3.336,24.41,0,109.7,13.53,2.74,301.8
"2010-04-07 01:08:00",3476,11.83,335,5.554,0.917,7.213,101.0523,1.984,3.325,24.22,0,109.7,13.53,2.74,297.0
"2010-04-07 01:08:30",3477,11.17,337.3,5.45,0.892,7.238,101.0466,1.97,3.325,24.23,0,109.8,13.53,2.73,299.3
"2010-04-07 01:09:00",3478,10.71,338,4.847,0.751,7.184,101.0342,1.938,3.317,23.91,0,109.7,13.53,2.70,300.0
"2010-04-07 01:09:30",3479,11.59,339.7,5.196,0.696,7.103,101.022,1.907,3.316,23.79,0,109.7,13.53,2.67,301.7
"2010-04-07 01:10:00",3480,12.27,341.3,4.542,0.78,7.219,101.0183,1.898,3.311,24.38,0,109.7,13.53,2.66,303.3
"2010-04-07 01:10:30",3481,13.4,332.9,4.3,1.09,7.263,101.0186,1.898,3.319,24.85,0,109.7,13.53,2.66,294.9
"2010-04-07 01:11:00",3482,14.68,332.4,4.415,0.762,7.154,101.0183,1.898,3.302,24.95,0,109.7,13.52,2.66,294.4
"2010-04-07 01:11:30",3483,15.83,329.4,4.574,0.775,7.6,101.0183,1.898,3.291,24.67,0,109.7,13.52,2.66,291.4
"2010-04-07 01:12:00",3484,16.54,330.2,6.37,0.842,7.959,101.0183,1.898,3.269,24.57,0,109.7,13.52,2.66,292.2
"2010-04-07 01:12:30",3485,15.6,327.7,4.951,0.706,8.05,101.0181,1.897,3.253,24.42,0,109.7,13.52,2.66,289.7
"2010-04-07 01:13:00",3486,14.66,328.5,4.44,1.181,8.18,101.0076,1.87,3.247,24.26,0,109.7,13.52,2.63,290.5
"2010-04-07 01:13:30",3487,13.37,341,7.589,0.693,8.52,100.9892,1.823,3.235,23.72,0,109.7,13.52,2.58,303.0
"2010-04-07 01:14:00",3488,14.19,324.9,4.86,0.724,8.05,100.9847,1.812,3.226,23.55,0,109.7,13.52,2.57,286.9
"2010-04-07 01:14:30",3489,15.89,330.5,7.188,1.016,8.15,100.9847,1.812,3.214,24.38,0,109.7,13.52,2.57,292.5
"2010-04-07 01:15:00",3490,17.01,335.8,4.532,0.84,8.22,100.9847,1.812,3.194,24.51,0,109.7,13.52,2.57,297.8
"2010-04-07 01:15:30",3491,18.58,339.7,4.296,0.98,8.36,100.9847,1.812,3.197,24.87,0,109.7,13.52,2.57,301.7
"2010-04-07 01:16:00",3492,16.74,344.3,4.101,0.952,8.64,100.985,1.812,3.187,25.1,0,109.7,13.53,2.57,306.3
"2010-04-07 01:16:30",3493,16.11,348.8,4.667,0.747,8.35,100.9844,1.811,3.186,25.14,0,109.7,13.53,2.57,310.8
"2010-04-07 01:17:00",3494,16.18,347.4,4.544,1.059,8.03,100.9677,1.768,3.18,24.86,0,109.7,13.53,2.53,309.4
"2010-04-07 01:17:30",3495,16.6,345.6,4.933,1.143,7.753,100.9533,1.732,3.136,24.62,0,109.7,13.53,2.49,307.6
"2010-04-07 01:18:00",3496,15.4,351,6.264,0.796,8.17,100.9527,1.73,3.124,24.85,0,109.7,13.53,2.49,313.0
"2010-04-07 01:18:30",3497,13.56,351,6.226,0.967,7.842,100.9539,1.733,3.121,24.79,0,109.7,13.53,2.49,313.0
"2010-04-07 01:19:00",3498,13.97,338.3,5.125,1.423,7.66,100.9536,1.732,3.127,25.03,0,109.7,13.53,2.49,300.3
"2010-04-07 01:19:30",3499,12.12,352.2,10.58,1.299,7.961,100.9477,1.717,3.102,25.28,0,109.7,13.53,2.48,314.2
"2010-04-07 01:20:00",3500,11.05,352.8,6.521,0.743,7.599,100.931,1.675,3.073,25.22,0,109.7,13.53,2.43,314.8
"2010-04-07 01:20:30",3501,11.9,338,5.489,0.977,7.209,100.9219,1.652,3.056,25.43,0,109.7,13.53,2.41,300.0
"2010-04-07 01:21:00",3502,13.97,335.7,8.46,1.481,7.349,100.9248,1.659,3.067,25.58,0,109.7,13.53,2.42,297.7
"2010-04-07 01:21:30",3503,13.88,331.5,8.48,0.755,7.395,100.9265,1.663,3.035,25.81,0,109.7,13.53,2.42,293.5
"2010-04-07 01:22:00",3504,14.13,345.5,6.617,1.106,7.731,100.9268,1.664,3.031,25.92,0,109.7,13.53,2.42,307.5
"2010-04-07 01:22:30",3505,14.2,338.1,5.45,0.724,7.671,100.9152,1.634,3.006,25.75,0,109.7,13.53,2.39,300.1
"2010-04-07 01:23:00",3506,12.93,335.7,4.309,0.606,7.554,100.8948,1.582,2.99,25.68,0,109.7,13.54,2.34,297.7
"2010-04-07 01:23:30",3507,12.72,335.3,4.132,0.57,7.491,100.8931,1.578,2.988,25.73,0,109.7,13.54,2.34,297.3
"2010-04-07 01:24:00",3508,13.04,336.6,3.309,0.68,7.602,100.8957,1.585,2.972,25.83,0,109.7,13.54,2.34,298.6
"2010-04-07 01:24:30",3509,12.92,335.4,5.045,0.615,7.368,100.8974,1.589,2.958,25.93,0,109.7,13.54,2.35,297.4
"2010-04-07 01:25:00",3510,12.2,329.9,5.137,0.507,7.341,100.8914,1.574,2.95,26.09,0,109.7,13.54,2.33,291.9
"2010-04-07 01:25:30",3511,12.06,333.5,5.839,0.582,7.584,100.8779,1.539,2.924,26.27,0,109.7,13.54,2.30,295.5
"2010-04-07 01:26:00",3512,11.78,332.4,4.453,0.527,7.662,100.8725,1.526,2.918,26.29,0,109.7,13.54,2.28,294.4
"2010-04-07 01:26:30",3513,11.69,332.1,4.705,0.601,7.411,100.8674,1.513,2.909,26.24,0,109.7,13.54,2.27,294.1
"2010-04-07 01:27:00",3514,11.23,332,3.598,0.727,7.209,100.8672,1.512,2.892,26.25,0,109.7,13.54,2.27,294.0
"2010-04-07 01:27:30",3515,10.43,325.8,4.206,0.771,7.016,100.8691,1.517,2.871,26.35,0,109.7,13.53,2.27,287.8
"2010-04-07 01:28:00",3516,9.19,323.9,5.65,0.605,7.192,100.8694,1.518,2.872,26.78,0,109.7,13.53,2.27,285.9
"2010-04-07 01:28:30",3517,9.64,325.9,4.704,0.598,6.761,100.8632,1.502,2.844,26.97,0,109.7,13.53,2.26,287.9
"2010-04-07 01:29:00",3518,9.92,322.2,4.799,0.779,6.648,100.8547,1.48,2.863,27.2,0,109.7,13.53,2.24,284.2
"2010-04-07 01:29:30",3519,11.38,325.2,8.81,0.854,6.573,100.8449,1.455,2.841,27.37,0,109.7,13.53,2.21,287.2
"2010-04-07 01:30:00",3520,11.01,323.5,5.53,1.093,6.7,100.8395,1.441,2.815,27.54,0,109.7,13.53,2.20,285.5
"2010-04-07 01:30:30",3521,10.96,324,6.071,0.805,6.775,100.8412,1.446,2.812,27.58,0,109.7,13.53,2.20,286.0
"2010-04-07 01:31:00",3522,11.99,317.7,6.695,0.896,6.68,100.8409,1.445,2.804,27.42,0,109.7,13.53,2.20,279.7
"2010-04-07 01:31:30",3523,12.04,316.7,7.516,1.719,6.728,100.842,1.448,2.789,27.45,0,109.7,13.53,2.20,278.7
"2010-04-07 01:32:00",3524,13.54,314.6,3.03,0.84,6.961,100.829,1.415,2.781,27.24,0,109.7,13.53,2.17,276.6
"2010-04-07 01:32:30",3525,14.05,303.7,5.475,0.877,7.138,100.8115,1.37,2.765,27.02,0,109.7,13.54,2.13,265.7
"2010-04-07 01:33:00",3526,12.51,304.1,6.734,0.909,7.194,100.8087,1.363,2.76,27.21,0,109.7,13.54,2.12,266.1
"2010-04-07 01:33:30",3527,10.39,316,10.65,0.982,7.152,100.807,1.358,2.739,27.33,0,109.7,13.54,2.12,278.0
"2010-04-07 01:34:00",3528,13.52,319.4,4.799,1.287,7.263,100.8089,1.363,2.71,27.44,0,109.7,13.54,2.12,281.4
"2010-04-07 01:34:30",3529,14.45,317,5.318,0.826,7.267,100.7948,1.327,2.7,27.64,0,109.7,13.54,2.08,279.0
"2010-04-07 01:35:00",3530,14.72,320.1,4.35,1.228,7.201,100.7789,1.287,2.701,27.58,0,109.7,13.54,2.04,282.1
"2010-04-07 01:35:30",3531,12.4,321.2,6.659,0.789,7.471,100.7736,1.273,2.656,27.59,0,109.7,13.54,2.03,283.2
"2010-04-07 01:36:00",3532,11.45,321.3,4.507,1.027,7.66,100.7741,1.275,2.673,27.64,0,109.7,13.54,2.03,283.3
"2010-04-07 01:36:30",3533,13.86,317.7,5.515,0.886,7.279,100.7764,1.28,2.648,27.69,0,109.7,13.54,2.04,279.7
"2010-04-07 01:37:00",3534,14.89,317.4,4.989,0.728,7.338,100.7767,1.281,2.634,27.89,0,109.7,13.54,2.04,279.4
"2010-04-07 01:37:30",3535,15.87,320.7,4.77,0.558,7.512,100.7702,1.265,2.612,28.09,0,109.7,13.54,2.02,282.7
"2010-04-07 01:38:00",3536,15.87,321.6,3.875,0.824,7.868,100.762,1.244,2.601,27.75,0,109.7,13.54,2.00,283.6
"2010-04-07 01:38:30",3537,14.08,322.8,5.146,0.898,7.693,100.7493,1.211,2.584,27.91,0,109.7,13.54,1.97,284.8
"2010-04-07 01:39:00",3538,13.8,326.8,4.725,0.732,7.797,100.7442,1.198,2.593,28.08,0,109.7,13.54,1.95,288.8
"2010-04-07 01:39:30",3539,12.5,331.5,5.006,0.664,7.785,100.7436,1.197,2.586,28.25,0,109.6,13.54,1.95,293.5
"2010-04-07 01:40:00",3540,11.68,329.4,5.05,0.792,7.663,100.745,1.2,2.566,28.25,0,109.7,13.54,1.96,291.4
"2010-04-07 01:40:30",3541,13.51,323.7,5.323,0.683,7.378,100.7448,1.2,2.572,28.37,0,109.7,13.54,1.96,285.7
"2010-04-07 01:41:00",3542,12.46,319.9,4.977,0.743,7.474,100.7462,1.203,2.564,28.36,0,109.6,13.55,1.96,281.9
"2010-04-07 01:41:30",3543,11.59,315.8,5.167,0.769,7.46,100.7467,1.205,2.529,27.91,0,109.6,13.55,1.96,277.8
"2010-04-07 01:42:00",3544,12.8,311.7,5.197,1.179,7.375,100.7442,1.198,2.521,27.86,0,109.7,13.55,1.95,273.7
"2010-04-07 01:42:30",3545,11.06,311,5.247,0.627,7.31,100.7363,1.178,2.535,27.89,0,109.7,13.55,1.93,273.0
"2010-04-07 01:43:00",3546,11.6,314.1,5.632,0.885,7.129,100.7292,1.16,2.529,27.61,0,109.6,13.55,1.92,276.1
"2010-04-07 01:43:30",3547,13.52,320,4.552,0.731,6.853,100.725,1.149,2.5,28.34,0,109.6,13.54,1.91,282.0
"2010-04-07 01:44:00",3548,14.92,317.3,4.218,0.811,7.293,100.7173,1.13,2.497,28.28,0,109.6,13.54,1.89,279.3
"2010-04-07 01:44:30",3549,12.44,322.8,4.534,1.395,7.458,100.7131,1.119,2.49,28.05,0,109.7,13.54,1.87,284.8
"2010-04-07 01:45:00",3550,12.74,319.8,5.743,0.975,7.303,100.7131,1.119,2.491,27.93,0,109.6,13.54,1.87,281.8
"2010-04-07 01:45:30",3551,13.41,317.1,8.04,0.754,7.406,100.7131,1.119,2.49,28.02,0,109.6,13.54,1.87,279.1
"2010-04-07 01:46:00",3552,13.07,308.6,5.671,1.061,7.507,100.7131,1.119,2.478,27.88,0,109.6,13.54,1.87,270.6
"2010-04-07 01:46:30",3553,12.77,318.6,4.659,0.835,7.195,100.7131,1.119,2.473,27.97,0,109.7,13.54,1.87,280.6
"2010-04-07 01:47:00",3554,12.29,322.4,4.551,0.992,7.377,100.7131,1.119,2.47,27.94,0,109.6,13.54,1.87,284.4
"2010-04-07 01:47:30",3555,14.1,318.7,4.835,0.872,7.145,100.7131,1.119,2.455,27.92,0,109.6,13.54,1.87,280.7
"2010-04-07 01:48:00",3556,14.73,320.6,4.654,0.596,7.478,100.7131,1.119,2.476,28.63,0,109.6,13.54,1.87,282.6
"2010-04-07 01:48:30",3557,15.69,318.6,5.08,0.503,7.518,100.7131,1.119,2.465,28.53,0,109.7,13.54,1.87,280.6
"2010-04-07 01:49:00",3558,13.9,319.7,5.047,0.693,7.577,100.7131,1.119,2.469,28.71,0,109.6,13.55,1.87,281.7
"2010-04-07 01:49:30",3559,13.83,319.5,4.95,0.645,7.569,100.7131,1.119,2.45,29.21,0,109.6,13.55,1.87,281.5
"2010-04-07 01:50:00",3560,14.03,315.7,5.062,0.623,7.728,100.7131,1.119,2.444,28.96,0,109.6,13.55,1.87,277.7
"2010-04-07 01:50:30",3561,14.4,315.9,4.429,0.856,7.593,100.7125,1.117,2.437,28.79,0,109.7,13.55,1.87,277.9
"2010-04-07 01:51:00",3562,14.73,314.7,4.952,0.833,7.565,100.7117,1.115,2.423,28.44,0,109.6,13.55,1.87,276.7